Time,TemperatureF,DewpointF,PressureIn,WindDirection,WindDirectionDegrees,WindSpeedMPH,WindSpeedGustMPH,Humidity,HourlyPrecipIn,Conditions,Clouds,dailyrainin,SolarRadiationWatts/m^2,SoftwareType,DateUTC
2013-03-21 00:12:00,34.0,34.0,-100.00,North,359,11.0,25.0,100,0.00,,,0.00,0.000000,,2013-03-21 07:12:00,
2013-03-21 00:22:00,34.0,34.0,-100.00,North,359,11.0,25.0,100,0.00,,,0.00,0.000000,,2013-03-21 07:22:00,
2013-03-21 00:32:00,34.0,34.0,-100.00,North,359,11.0,25.0,100,0.00,,,0.00,0.000000,,2013-03-21 07:32:00,
2013-03-21 00:42:00,34.0,34.0,-100.00,North,359,11.0,25.0,100,0.00,,,0.00,0.000000,,2013-03-21 07:42:00,
2013-03-21 00:51:00,34.0,34.0,-100.00,North,358,10.0,23.0,100,0.00,,,0.00,0.000000,,2013-03-21 07:51:00,
2013-03-21 01:12:00,34.0,34.0,-100.00,North,358,10.0,23.0,100,0.00,,,0.00,0.000000,,2013-03-21 08:12:00,
2013-03-21 01:22:00,34.0,34.0,-100.00,North,358,10.0,23.0,100,0.00,,,0.00,0.000000,,2013-03-21 08:22:00,
2013-03-21 01:33:00,34.0,34.0,-100.00,North,358,10.0,23.0,100,0.00,,,0.00,0.000000,,2013-03-21 08:33:00,
2013-03-21 01:42:00,34.0,34.0,-100.00,North,358,10.0,23.0,100,0.00,,,0.00,0.000000,,2013-03-21 08:42:00,
2013-03-21 01:51:00,33.0,33.0,-100.00,North,1,11.0,22.0,100,0.00,,,0.00,0.000000,,2013-03-21 08:51:00,
2013-03-21 02:21:00,33.0,33.0,-100.00,North,1,11.0,22.0,100,0.00,,,0.00,0.000000,,2013-03-21 09:21:00,
2013-03-21 02:33:00,33.0,33.0,-100.00,North,1,11.0,22.0,100,0.00,,,0.00,0.000000,,2013-03-21 09:33:00,
2013-03-21 02:43:00,33.0,33.0,-100.00,North,1,11.0,22.0,100,0.00,,,0.00,0.000000,,2013-03-21 09:43:00,
2013-03-21 02:51:00,33.0,33.0,-100.00,North,357,11.0,25.0,100,0.00,,,0.00,0.000000,,2013-03-21 09:51:00,
2013-03-21 03:22:00,33.0,33.0,-100.00,North,357,11.0,25.0,100,0.00,,,0.00,0.000000,,2013-03-21 10:22:00,
2013-03-21 03:42:00,33.0,33.0,-100.00,North,357,11.0,25.0,100,0.00,,,0.00,0.000000,,2013-03-21 10:42:00,
2013-03-21 03:51:00,33.0,33.0,-100.00,NNE,23,14.0,23.0,100,0.00,,,0.00,0.000000,,2013-03-21 10:51:00,
2013-03-21 04:22:00,33.0,33.0,-100.00,NNE,23,14.0,23.0,100,0.00,,,0.00,0.000000,,2013-03-21 11:22:00,
2013-03-21 04:33:00,33.0,33.0,-100.00,NNE,23,14.0,23.0,100,0.00,,,0.00,0.000000,,2013-03-21 11:33:00,
2013-03-21 04:42:00,33.0,33.0,-100.00,NNE,23,14.0,23.0,100,0.00,,,0.00,0.000000,,2013-03-21 11:42:00,
2013-03-21 04:51:00,34.0,34.0,-100.00,ENE,67,17.0,31.0,100,0.00,,,0.00,0.000000,,2013-03-21 11:51:00,
2013-03-21 05:12:00,34.0,34.0,-100.00,ENE,67,17.0,31.0,100,0.00,,,0.00,0.000000,,2013-03-21 12:12:00,
2013-03-21 05:22:00,34.0,34.0,-100.00,ENE,67,17.0,31.0,100,0.00,,,0.00,0.000000,,2013-03-21 12:22:00,
2013-03-21 05:32:00,34.0,34.0,-100.00,ENE,67,17.0,31.0,100,0.00,,,0.00,0.000000,,2013-03-21 12:32:00,
2013-03-21 05:42:00,34.0,34.0,-100.00,ENE,67,17.0,31.0,100,0.00,,,0.00,0.000000,,2013-03-21 12:42:00,
2013-03-21 05:51:00,32.0,32.0,-100.00,NNW,327,15.0,30.0,100,0.00,,,0.00,0.000000,,2013-03-21 12:51:00,
2013-03-21 06:22:00,32.0,32.0,-100.00,NNW,327,15.0,30.0,100,0.00,,,0.00,0.000000,,2013-03-21 13:22:00,
2013-03-21 06:32:00,32.0,32.0,-100.00,NNW,327,15.0,30.0,100,0.00,,,0.00,0.000000,,2013-03-21 13:32:00,
2013-03-21 06:42:00,32.0,32.0,-100.00,NNW,327,15.0,30.0,100,0.00,,,0.00,0.000000,,2013-03-21 13:42:00,
2013-03-21 06:51:00,32.0,32.0,-100.00,NNW,333,11.0,25.0,100,0.00,,,0.00,0.000000,,2013-03-21 13:51:00,
2013-03-21 07:12:00,32.0,32.0,-100.00,NNW,333,11.0,25.0,100,0.00,,,0.00,0.000000,,2013-03-21 14:12:00,
2013-03-21 07:21:00,32.0,32.0,-100.00,NNW,333,11.0,25.0,100,0.00,,,0.00,0.000000,,2013-03-21 14:21:00,
2013-03-21 07:32:00,32.0,32.0,-100.00,NNW,333,11.0,25.0,100,0.00,,,0.00,0.000000,,2013-03-21 14:32:00,
2013-03-21 07:42:00,32.0,32.0,-100.00,NNW,333,11.0,25.0,100,0.00,,,0.00,0.000000,,2013-03-21 14:42:00,
2013-03-21 07:51:00,32.0,32.0,-100.00,NNW,340,12.0,20.0,100,0.00,,,0.00,53.000000,,2013-03-21 14:51:00,
2013-03-21 08:12:00,32.0,32.0,-100.00,NNW,340,12.0,20.0,100,0.00,,,0.00,53.000000,,2013-03-21 15:12:00,
2013-03-21 08:22:00,32.0,32.0,-100.00,NNW,340,12.0,20.0,100,0.00,,,0.00,53.000000,,2013-03-21 15:22:00,
2013-03-21 08:32:00,32.0,32.0,-100.00,NNW,340,12.0,20.0,100,0.00,,,0.00,53.000000,,2013-03-21 15:32:00,
2013-03-21 08:42:00,32.0,32.0,-100.00,NNW,340,12.0,20.0,100,0.00,,,0.00,53.000000,,2013-03-21 15:42:00,
2013-03-21 08:51:00,33.0,33.0,-100.00,NNW,345,11.0,20.0,100,0.00,,,0.00,161.000000,,2013-03-21 15:51:00,
2013-03-21 09:23:00,33.0,33.0,-100.00,NNW,345,11.0,20.0,100,0.00,,,0.00,161.000000,,2013-03-21 16:23:00,
2013-03-21 09:33:00,33.0,33.0,-100.00,NNW,345,11.0,20.0,100,0.00,,,0.00,161.000000,,2013-03-21 16:33:00,
2013-03-21 09:42:00,33.0,33.0,-100.00,NNW,345,11.0,20.0,100,0.00,,,0.00,161.000000,,2013-03-21 16:42:00,
2013-03-21 09:51:00,39.0,30.0,-100.00,North,351,7.0,16.0,71,0.00,,,0.00,455.000000,,2013-03-21 16:51:00,
2013-03-21 10:23:00,39.0,30.0,-100.00,North,351,7.0,16.0,71,0.00,,,0.00,455.000000,,2013-03-21 17:23:00,
2013-03-21 10:32:00,39.0,30.0,-100.00,North,351,7.0,16.0,71,0.00,,,0.00,455.000000,,2013-03-21 17:32:00,
2013-03-21 10:42:00,39.0,30.0,-100.00,North,351,7.0,16.0,71,0.00,,,0.00,455.000000,,2013-03-21 17:42:00,
2013-03-21 10:51:00,43.0,28.0,-100.00,NNW,338,7.0,14.0,54,0.00,,,0.00,966.000000,,2013-03-21 17:51:00,
2013-03-21 11:12:00,43.0,28.0,-100.00,NNW,338,7.0,14.0,54,0.00,,,0.00,966.000000,,2013-03-21 18:12:00,
2013-03-21 11:22:00,43.0,28.0,-100.00,NNW,338,7.0,14.0,54,0.00,,,0.00,966.000000,,2013-03-21 18:22:00,
2013-03-21 11:32:00,43.0,28.0,-100.00,NNW,338,7.0,14.0,54,0.00,,,0.00,966.000000,,2013-03-21 18:32:00,
2013-03-21 11:42:00,43.0,28.0,-100.00,NNW,338,7.0,14.0,54,0.00,,,0.00,966.000000,,2013-03-21 18:42:00,
2013-03-21 11:51:00,46.0,23.0,-100.00,NNW,338,8.0,14.0,40,0.00,,,0.00,1178.000000,,2013-03-21 18:51:00,
2013-03-21 12:12:00,46.0,23.0,-100.00,NNW,338,8.0,14.0,40,0.00,,,0.00,1178.000000,,2013-03-21 19:12:00,
2013-03-21 12:22:00,46.0,23.0,-100.00,NNW,338,8.0,14.0,40,0.00,,,0.00,1178.000000,,2013-03-21 19:22:00,
2013-03-21 12:32:00,46.0,23.0,-100.00,NNW,338,8.0,14.0,40,0.00,,,0.00,1178.000000,,2013-03-21 19:32:00,
2013-03-21 12:42:00,46.0,23.0,-100.00,NNW,338,8.0,14.0,40,0.00,,,0.00,1178.000000,,2013-03-21 19:42:00,
2013-03-21 12:51:00,46.0,24.0,-100.00,NNW,341,8.0,15.0,42,0.00,,,0.00,1305.000000,,2013-03-21 19:51:00,
2013-03-21 13:22:00,46.0,24.0,-100.00,NNW,341,8.0,15.0,42,0.00,,,0.00,1305.000000,,2013-03-21 20:22:00,
2013-03-21 13:33:00,46.0,24.0,-100.00,NNW,341,8.0,15.0,42,0.00,,,0.00,1305.000000,,2013-03-21 20:33:00,
2013-03-21 13:42:00,46.0,24.0,-100.00,NNW,341,8.0,15.0,42,0.00,,,0.00,1305.000000,,2013-03-21 20:42:00,
2013-03-21 13:51:00,46.0,30.0,-100.00,NNW,341,5.0,16.0,53,0.00,,,0.00,1332.000000,,2013-03-21 20:51:00,
2013-03-21 14:22:00,46.0,30.0,-100.00,NNW,341,5.0,16.0,53,0.00,,,0.00,1332.000000,,2013-03-21 21:22:00,
2013-03-21 14:32:00,46.0,30.0,-100.00,NNW,341,5.0,16.0,53,0.00,,,0.00,1332.000000,,2013-03-21 21:32:00,
2013-03-21 14:43:00,46.0,30.0,-100.00,NNW,341,5.0,16.0,53,0.00,,,0.00,1332.000000,,2013-03-21 21:43:00,
2013-03-21 14:51:00,45.0,23.0,-100.00,ENE,69,8.0,15.0,41,0.00,,,0.00,1264.000000,,2013-03-21 21:51:00,
2013-03-21 15:23:00,45.0,23.0,-100.00,ENE,69,8.0,15.0,41,0.00,,,0.00,1264.000000,,2013-03-21 22:23:00,
2013-03-21 15:33:00,45.0,23.0,-100.00,ENE,69,8.0,15.0,41,0.00,,,0.00,1264.000000,,2013-03-21 22:33:00,
2013-03-21 15:42:00,45.0,23.0,-100.00,ENE,69,8.0,15.0,41,0.00,,,0.00,1264.000000,,2013-03-21 22:42:00,
2013-03-21 15:51:00,40.0,23.0,-100.00,NNW,335,12.0,19.0,50,0.00,,,0.00,1107.000000,,2013-03-21 22:51:00,
2013-03-21 16:22:00,40.0,23.0,-100.00,NNW,335,12.0,19.0,50,0.00,,,0.00,1107.000000,,2013-03-21 23:22:00,
2013-03-21 16:32:00,40.0,23.0,-100.00,NNW,335,12.0,19.0,50,0.00,,,0.00,1107.000000,,2013-03-21 23:32:00,
2013-03-21 16:42:00,40.0,23.0,-100.00,NNW,335,12.0,19.0,50,0.00,,,0.00,1107.000000,,2013-03-21 23:42:00,
2013-03-21 16:51:00,35.0,28.0,-100.00,North,3,14.0,21.0,75,0.00,,,0.00,387.000000,,2013-03-21 23:51:00,
2013-03-21 17:22:00,35.0,28.0,-100.00,North,3,14.0,21.0,75,0.00,,,0.00,387.000000,,2013-03-22 00:22:00,
2013-03-21 17:31:00,35.0,28.0,-100.00,North,3,14.0,21.0,75,0.00,,,0.00,387.000000,,2013-03-22 00:31:00,
2013-03-21 17:42:00,35.0,28.0,-100.00,North,3,14.0,21.0,75,0.00,,,0.00,387.000000,,2013-03-22 00:42:00,
2013-03-21 18:12:00,33.0,17.0,-100.00,ESE,121,14.0,24.0,52,0.00,,,0.00,293.000000,,2013-03-22 01:12:00,
2013-03-21 18:22:00,33.0,17.0,-100.00,ESE,121,14.0,24.0,52,0.00,,,0.00,293.000000,,2013-03-22 01:22:00,
2013-03-21 18:51:00,33.0,33.0,-100.00,ESE,108,14.0,26.0,100,0.00,,,0.00,47.000000,,2013-03-22 01:51:00,
2013-03-21 19:12:00,33.0,33.0,-100.00,ESE,108,14.0,26.0,100,0.00,,,0.00,47.000000,,2013-03-22 02:12:00,
2013-03-21 19:22:00,33.0,33.0,-100.00,ESE,108,14.0,26.0,100,0.00,,,0.00,47.000000,,2013-03-22 02:22:00,
2013-03-21 19:32:00,33.0,33.0,-100.00,ESE,108,14.0,26.0,100,0.00,,,0.00,47.000000,,2013-03-22 02:32:00,
2013-03-21 19:42:00,33.0,33.0,-100.00,ESE,108,14.0,26.0,100,0.00,,,0.00,47.000000,,2013-03-22 02:42:00,
2013-03-21 19:51:00,32.0,32.0,-100.00,South,174,15.0,25.0,100,0.00,,,0.00,2.000000,,2013-03-22 02:51:00,
2013-03-21 20:12:00,32.0,32.0,-100.00,South,174,15.0,25.0,100,0.00,,,0.00,2.000000,,2013-03-22 03:12:00,
2013-03-21 20:22:00,32.0,32.0,-100.00,South,174,15.0,25.0,100,0.00,,,0.00,2.000000,,2013-03-22 03:22:00,
2013-03-21 20:33:00,32.0,32.0,-100.00,South,174,15.0,25.0,100,0.00,,,0.00,2.000000,,2013-03-22 03:33:00,
2013-03-21 20:42:00,32.0,32.0,-100.00,South,174,15.0,25.0,100,0.00,,,0.00,2.000000,,2013-03-22 03:42:00,
2013-03-21 20:51:00,32.0,32.0,-100.00,North,3,17.0,31.0,100,0.00,,,0.00,0.000000,,2013-03-22 03:51:00,
2013-03-21 21:12:00,32.0,32.0,-100.00,North,3,17.0,31.0,100,0.00,,,0.00,0.000000,,2013-03-22 04:12:00,
2013-03-21 21:22:00,32.0,32.0,-100.00,North,3,17.0,31.0,100,0.00,,,0.00,0.000000,,2013-03-22 04:22:00,
2013-03-21 21:32:00,32.0,32.0,-100.00,North,3,17.0,31.0,100,0.00,,,0.00,0.000000,,2013-03-22 04:32:00,
2013-03-21 21:42:00,32.0,32.0,-100.00,North,3,17.0,31.0,100,0.00,,,0.00,0.000000,,2013-03-22 04:42:00,
2013-03-21 21:51:00,32.0,32.0,-100.00,North,356,19.0,31.0,100,0.00,,,0.00,0.000000,,2013-03-22 04:51:00,
2013-03-21 22:12:00,32.0,32.0,-100.00,North,356,19.0,31.0,100,0.00,,,0.00,0.000000,,2013-03-22 05:12:00,
2013-03-21 22:22:00,32.0,32.0,-100.00,North,356,19.0,31.0,100,0.00,,,0.00,0.000000,,2013-03-22 05:22:00,
2013-03-21 22:32:00,32.0,32.0,-100.00,North,356,19.0,31.0,100,0.00,,,0.00,0.000000,,2013-03-22 05:32:00,
2013-03-21 22:42:00,32.0,32.0,-100.00,North,356,19.0,31.0,100,0.00,,,0.00,0.000000,,2013-03-22 05:42:00,
2013-03-21 22:51:00,31.0,31.0,-100.00,North,351,16.0,34.0,100,0.00,,,0.00,0.000000,,2013-03-22 05:51:00,
2013-03-21 23:12:00,31.0,31.0,-100.00,North,351,16.0,34.0,100,0.00,,,0.00,0.000000,,2013-03-22 06:12:00,
2013-03-21 23:22:00,31.0,31.0,-100.00,North,351,16.0,34.0,100,0.00,,,0.00,0.000000,,2013-03-22 06:22:00,
2013-03-21 23:32:00,31.0,31.0,-100.00,North,351,16.0,34.0,100,0.00,,,0.00,0.000000,,2013-03-22 06:32:00,
2013-03-21 23:42:00,31.0,31.0,-100.00,North,351,16.0,34.0,100,0.00,,,0.00,0.000000,,2013-03-22 06:42:00,
2013-03-21 23:51:00,30.0,27.0,-100.00,NNE,14,18.0,28.0,88,0.00,,,0.00,0.000000,,2013-03-22 06:51:00,